Time,TemperatureF,DewpointF,PressureIn,WindDirection,WindDirectionDegrees,WindSpeedMPH,WindSpeedGustMPH,Humidity,HourlyPrecipIn,Conditions,Clouds,dailyrainin,SoftwareType,DateUTC
2013-02-24 00:00:00,34.8,33.8,29.85,NNE,29,2.0,0.0,96,0.00,,,0.06,WeatherTracker,2013-02-24 05:00:00,
2013-02-24 00:05:00,34.9,33.9,29.84,NNE,13,0.0,0.0,96,0.00,,,0.00,WeatherTracker,2013-02-24 05:05:00,
2013-02-24 00:10:00,35.0,34.0,29.84,NNE,28,3.0,0.0,96,0.00,,,0.00,WeatherTracker,2013-02-24 05:10:00,
2013-02-24 00:15:00,35.1,34.1,29.84,ENE,78,1.0,0.0,96,0.00,,,0.00,WeatherTracker,2013-02-24 05:15:00,
2013-02-24 00:20:00,35.2,34.2,29.84,NNE,26,0.0,0.0,96,0.00,,,0.00,WeatherTracker,2013-02-24 05:20:00,
2013-02-24 00:25:00,35.3,34.3,29.83,NNE,28,0.0,0.0,96,0.01,,,0.01,WeatherTracker,2013-02-24 05:25:00,
2013-02-24 00:30:00,35.4,34.6,29.83,NNE,31,1.0,0.0,97,0.01,,,0.01,WeatherTracker,2013-02-24 05:30:00,
2013-02-24 00:35:00,35.5,34.7,29.82,NNE,25,0.0,0.0,97,0.01,,,0.01,WeatherTracker,2013-02-24 05:35:00,
2013-02-24 00:41:00,35.6,34.6,29.82,ENE,68,1.0,0.0,96,0.01,,,0.01,WeatherTracker,2013-02-24 05:41:00,
2013-02-24 00:45:00,35.7,34.7,29.82,NNE,25,2.0,0.0,96,0.01,,,0.01,WeatherTracker,2013-02-24 05:45:00,
2013-02-24 00:51:00,35.9,34.9,29.82,NNE,17,5.0,0.0,96,0.01,,,0.01,WeatherTracker,2013-02-24 05:51:00,
2013-02-24 00:56:00,36.0,35.2,29.82,East,81,0.0,0.0,97,0.01,,,0.01,WeatherTracker,2013-02-24 05:56:00,
2013-02-24 01:01:00,36.1,35.3,29.82,NNE,25,0.0,0.0,97,0.01,,,0.01,WeatherTracker,2013-02-24 06:01:00,
2013-02-24 01:06:00,36.2,35.4,29.81,NNE,33,0.0,0.0,97,0.01,,,0.01,WeatherTracker,2013-02-24 06:06:00,
2013-02-24 01:11:00,36.3,35.5,29.81,ENE,61,2.0,0.0,97,0.02,,,0.02,WeatherTracker,2013-02-24 06:11:00,
2013-02-24 01:16:00,36.4,35.6,29.81,NNE,28,2.0,0.0,97,0.02,,,0.02,WeatherTracker,2013-02-24 06:16:00,
2013-02-24 01:21:00,36.5,35.7,29.80,North,5,0.0,0.0,97,0.02,,,0.02,WeatherTracker,2013-02-24 06:21:00,
2013-02-24 01:26:00,36.5,35.7,29.80,NNE,19,5.0,0.0,97,0.01,,,0.02,WeatherTracker,2013-02-24 06:26:00,
2013-02-24 01:31:00,36.6,35.8,29.80,NNE,14,2.0,0.0,97,0.01,,,0.02,WeatherTracker,2013-02-24 06:31:00,
2013-02-24 01:36:00,36.6,35.8,29.80,NNE,17,3.0,0.0,97,0.01,,,0.02,WeatherTracker,2013-02-24 06:36:00,
2013-02-24 01:41:00,36.8,36.0,29.80,NNE,20,0.0,0.0,97,0.01,,,0.02,WeatherTracker,2013-02-24 06:41:00,
2013-02-24 01:46:00,36.8,36.0,29.80,ENE,67,3.0,0.0,97,0.01,,,0.02,WeatherTracker,2013-02-24 06:46:00,
2013-02-24 01:51:00,37.0,36.2,29.80,North,9,4.0,0.0,97,0.01,,,0.02,WeatherTracker,2013-02-24 06:51:00,
2013-02-24 01:56:00,37.0,36.2,29.80,NNE,25,0.0,0.0,97,0.01,,,0.02,WeatherTracker,2013-02-24 06:56:00,
2013-02-24 02:01:00,37.1,36.3,29.80,North,5,0.0,0.0,97,0.01,,,0.02,WeatherTracker,2013-02-24 07:01:00,
2013-02-24 02:06:00,37.1,36.3,29.79,NNE,25,4.0,0.0,97,0.01,,,0.02,WeatherTracker,2013-02-24 07:06:00,
2013-02-24 02:11:00,37.2,36.4,29.78,North,11,3.0,0.0,97,0.00,,,0.02,WeatherTracker,2013-02-24 07:11:00,
2013-02-24 02:16:00,37.2,36.4,29.78,NE,49,1.0,0.0,97,0.00,,,0.02,WeatherTracker,2013-02-24 07:16:00,
2013-02-24 02:21:00,37.2,36.4,29.78,North,11,0.0,0.0,97,0.00,,,0.02,WeatherTracker,2013-02-24 07:21:00,
2013-02-24 02:26:00,37.2,36.4,29.77,NE,40,3.0,0.0,97,0.00,,,0.02,WeatherTracker,2013-02-24 07:26:00,
2013-02-24 02:31:00,37.3,36.5,29.77,North,5,0.0,0.0,97,0.00,,,0.02,WeatherTracker,2013-02-24 07:31:00,
2013-02-24 02:36:00,37.3,36.5,29.76,NNE,19,0.0,0.0,97,0.00,,,0.02,WeatherTracker,2013-02-24 07:36:00,
2013-02-24 02:41:00,37.3,36.5,29.76,NNE,17,2.0,0.0,97,0.00,,,0.02,WeatherTracker,2013-02-24 07:41:00,
2013-02-24 02:47:00,37.4,36.6,29.76,NE,52,2.0,0.0,97,0.00,,,0.02,WeatherTracker,2013-02-24 07:47:00,
2013-02-24 02:52:00,37.4,36.6,29.75,East,87,0.0,0.0,97,0.00,,,0.02,WeatherTracker,2013-02-24 07:52:00,
2013-02-24 02:57:00,37.4,36.6,29.75,NNE,19,2.0,0.0,97,0.00,,,0.02,WeatherTracker,2013-02-24 07:57:00,
2013-02-24 03:02:00,37.4,36.6,29.75,NNE,30,4.0,0.0,97,0.00,,,0.02,WeatherTracker,2013-02-24 08:02:00,
2013-02-24 03:07:00,37.4,36.6,29.74,NNE,22,0.0,0.0,97,0.00,,,0.02,WeatherTracker,2013-02-24 08:07:00,
2013-02-24 03:12:00,37.4,36.6,29.73,NNE,25,4.0,0.0,97,0.00,,,0.02,WeatherTracker,2013-02-24 08:12:00,
2013-02-24 03:17:00,37.4,36.6,29.73,North,5,5.0,0.0,97,0.01,,,0.03,WeatherTracker,2013-02-24 08:17:00,
2013-02-24 03:22:00,37.4,36.6,29.73,NNE,14,9.0,0.0,97,0.01,,,0.03,WeatherTracker,2013-02-24 08:22:00,
2013-02-24 03:27:00,37.4,36.6,29.73,North,11,1.0,0.0,97,0.01,,,0.03,WeatherTracker,2013-02-24 08:27:00,
2013-02-24 03:32:00,37.5,36.7,29.73,NNE,13,1.0,0.0,97,0.01,,,0.03,WeatherTracker,2013-02-24 08:32:00,
2013-02-24 03:37:00,37.5,36.7,29.73,ESE,106,4.0,0.0,97,0.01,,,0.03,WeatherTracker,2013-02-24 08:37:00,
2013-02-24 03:42:00,37.6,36.8,29.72,North,9,2.0,0.0,97,0.01,,,0.03,WeatherTracker,2013-02-24 08:42:00,
2013-02-24 03:47:00,37.6,36.8,29.72,NNE,16,0.0,0.0,97,0.01,,,0.03,WeatherTracker,2013-02-24 08:47:00,
2013-02-24 03:52:00,37.5,36.7,29.72,NE,40,3.0,0.0,97,0.01,,,0.03,WeatherTracker,2013-02-24 08:52:00,
2013-02-24 03:57:00,37.6,36.8,29.72,NNE,15,5.0,0.0,97,0.01,,,0.03,WeatherTracker,2013-02-24 08:57:00,
2013-02-24 04:02:00,37.6,36.8,29.72,NNE,31,0.0,0.0,97,0.01,,,0.03,WeatherTracker,2013-02-24 09:02:00,
2013-02-24 04:07:00,37.7,36.9,29.72,NNE,16,3.0,0.0,97,0.01,,,0.03,WeatherTracker,2013-02-24 09:07:00,
2013-02-24 04:12:00,37.7,36.9,29.72,North,11,4.0,0.0,97,0.02,,,0.04,WeatherTracker,2013-02-24 09:12:00,
2013-02-24 04:17:00,37.8,37.0,29.72,NNE,21,1.0,0.0,97,0.01,,,0.04,WeatherTracker,2013-02-24 09:17:00,
2013-02-24 04:22:00,37.8,37.0,29.72,NE,36,0.0,0.0,97,0.01,,,0.04,WeatherTracker,2013-02-24 09:22:00,
2013-02-24 04:27:00,37.8,37.0,29.72,NNE,25,5.0,0.0,97,0.01,,,0.04,WeatherTracker,2013-02-24 09:27:00,
2013-02-24 04:32:00,37.8,37.0,29.71,North,11,4.0,0.0,97,0.01,,,0.04,WeatherTracker,2013-02-24 09:32:00,
2013-02-24 04:38:00,37.7,36.9,29.71,East,86,0.0,0.0,97,0.01,,,0.04,WeatherTracker,2013-02-24 09:38:00,
2013-02-24 04:43:00,37.7,36.9,29.71,NNE,26,5.0,0.0,97,0.01,,,0.04,WeatherTracker,2013-02-24 09:43:00,
2013-02-24 04:48:00,37.7,36.9,29.71,ESE,103,3.0,0.0,97,0.01,,,0.04,WeatherTracker,2013-02-24 09:48:00,
2013-02-24 04:53:00,37.7,36.9,29.70,NNE,15,4.0,0.0,97,0.01,,,0.04,WeatherTracker,2013-02-24 09:53:00,
2013-02-24 04:58:00,37.7,36.9,29.70,North,5,1.0,0.0,97,0.01,,,0.04,WeatherTracker,2013-02-24 09:58:00,
2013-02-24 05:03:00,37.6,36.8,29.70,NNE,22,7.0,0.0,97,0.01,,,0.04,WeatherTracker,2013-02-24 10:03:00,
2013-02-24 05:08:00,37.5,36.7,29.70,NNE,28,7.0,0.0,97,0.01,,,0.04,WeatherTracker,2013-02-24 10:08:00,
2013-02-24 05:13:00,37.5,36.7,29.69,North,355,3.0,0.0,97,0.00,,,0.04,WeatherTracker,2013-02-24 10:13:00,
2013-02-24 05:18:00,37.6,36.8,29.69,NE,40,5.0,0.0,97,0.00,,,0.04,WeatherTracker,2013-02-24 10:18:00,
2013-02-24 05:23:00,37.6,36.8,29.69,East,80,1.0,0.0,97,0.00,,,0.04,WeatherTracker,2013-02-24 10:23:00,
2013-02-24 05:28:00,37.7,36.9,29.69,NE,36,3.0,0.0,97,0.00,,,0.04,WeatherTracker,2013-02-24 10:28:00,
2013-02-24 05:33:00,37.7,36.9,29.70,NNE,22,4.0,0.0,97,0.00,,,0.04,WeatherTracker,2013-02-24 10:33:00,
2013-02-24 05:38:00,37.7,36.9,29.70,NE,38,3.0,0.0,97,0.00,,,0.04,WeatherTracker,2013-02-24 10:38:00,
2013-02-24 05:43:00,37.7,36.9,29.71,NNE,19,2.0,0.0,97,0.00,,,0.04,WeatherTracker,2013-02-24 10:43:00,
2013-02-24 05:48:00,37.7,36.9,29.71,NNE,23,3.0,0.0,97,0.00,,,0.04,WeatherTracker,2013-02-24 10:48:00,
2013-02-24 05:53:00,37.7,36.9,29.71,NNE,19,0.0,0.0,97,0.01,,,0.05,WeatherTracker,2013-02-24 10:53:00,
2013-02-24 05:58:00,37.6,36.8,29.71,NNE,15,3.0,0.0,97,0.01,,,0.05,WeatherTracker,2013-02-24 10:58:00,
2013-02-24 06:03:00,37.5,36.7,29.71,North,355,8.0,0.0,97,0.01,,,0.05,WeatherTracker,2013-02-24 11:03:00,
2013-02-24 06:08:00,37.5,36.7,29.71,NNE,28,7.0,0.0,97,0.01,,,0.05,WeatherTracker,2013-02-24 11:08:00,
2013-02-24 06:13:00,37.4,36.6,29.71,NNE,21,3.0,0.0,97,0.01,,,0.05,WeatherTracker,2013-02-24 11:13:00,
2013-02-24 06:18:00,37.4,36.6,29.71,North,11,3.0,0.0,97,0.01,,,0.05,WeatherTracker,2013-02-24 11:18:00,
2013-02-24 06:24:00,37.4,36.6,29.70,NNE,33,1.0,0.0,97,0.01,,,0.05,WeatherTracker,2013-02-24 11:24:00,
2013-02-24 06:29:00,37.4,36.6,29.70,NNE,26,6.0,0.0,97,0.01,,,0.05,WeatherTracker,2013-02-24 11:29:00,
2013-02-24 06:34:00,37.4,36.6,29.70,NNE,28,4.0,0.0,97,0.01,,,0.05,WeatherTracker,2013-02-24 11:34:00,
2013-02-24 06:39:00,37.4,36.6,29.70,NNE,13,4.0,0.0,97,0.01,,,0.05,WeatherTracker,2013-02-24 11:39:00,
2013-02-24 06:44:00,37.4,36.6,29.70,NNE,21,3.0,0.0,97,0.01,,,0.05,WeatherTracker,2013-02-24 11:44:00,
2013-02-24 06:49:00,37.4,36.6,29.69,North,5,2.0,0.0,97,0.01,,,0.05,WeatherTracker,2013-02-24 11:49:00,
2013-02-24 06:54:00,37.4,36.6,29.69,NNE,20,1.0,0.0,97,0.00,,,0.05,WeatherTracker,2013-02-24 11:54:00,
2013-02-24 06:59:00,37.4,36.6,29.70,NNE,17,4.0,0.0,97,0.01,,,0.06,WeatherTracker,2013-02-24 11:59:00,
2013-02-24 07:04:00,37.4,36.6,29.71,NNE,13,2.0,0.0,97,0.01,,,0.06,WeatherTracker,2013-02-24 12:04:00,
2013-02-24 07:09:00,37.4,36.6,29.71,NNE,19,5.0,0.0,97,0.01,,,0.06,WeatherTracker,2013-02-24 12:09:00,
2013-02-24 07:14:00,37.5,36.7,29.71,NE,37,7.0,0.0,97,0.01,,,0.06,WeatherTracker,2013-02-24 12:14:00,
2013-02-24 07:19:00,37.6,36.8,29.71,NE,40,3.0,0.0,97,0.01,,,0.06,WeatherTracker,2013-02-24 12:19:00,
2013-02-24 07:24:00,37.7,36.9,29.70,NNE,28,1.0,0.0,97,0.01,,,0.06,WeatherTracker,2013-02-24 12:24:00,
2013-02-24 07:29:00,37.6,36.8,29.70,North,5,5.0,0.0,97,0.01,,,0.06,WeatherTracker,2013-02-24 12:29:00,
2013-02-24 07:34:00,37.7,36.9,29.70,NNE,13,5.0,0.0,97,0.01,,,0.06,WeatherTracker,2013-02-24 12:34:00,
2013-02-24 07:39:00,37.7,36.9,29.70,NNE,15,3.0,0.0,97,0.01,,,0.06,WeatherTracker,2013-02-24 12:39:00,
2013-02-24 07:44:00,37.7,36.9,29.69,NNE,15,5.0,0.0,97,0.01,,,0.06,WeatherTracker,2013-02-24 12:44:00,
2013-02-24 07:49:00,37.8,37.0,29.69,NNE,15,2.0,0.0,97,0.01,,,0.06,WeatherTracker,2013-02-24 12:49:00,
2013-02-24 07:54:00,37.8,37.0,29.69,NNE,28,4.0,0.0,97,0.01,,,0.06,WeatherTracker,2013-02-24 12:54:00,
2013-02-24 07:59:00,37.8,37.0,29.69,NNE,12,7.0,0.0,97,0.00,,,0.06,WeatherTracker,2013-02-24 12:59:00,
2013-02-24 08:04:00,37.8,37.0,29.69,North,360,4.0,0.0,97,0.00,,,0.06,WeatherTracker,2013-02-24 13:04:00,
2013-02-24 08:09:00,37.8,37.0,29.68,NE,36,1.0,0.0,97,0.00,,,0.06,WeatherTracker,2013-02-24 13:09:00,
2013-02-24 08:14:00,37.8,37.0,29.68,NNE,19,3.0,0.0,97,0.00,,,0.06,WeatherTracker,2013-02-24 13:14:00,
2013-02-24 08:19:00,37.8,37.0,29.68,NNE,27,2.0,0.0,97,0.00,,,0.06,WeatherTracker,2013-02-24 13:19:00,
2013-02-24 08:24:00,37.8,37.0,29.68,NNW,344,0.0,0.0,97,0.00,,,0.06,WeatherTracker,2013-02-24 13:24:00,
2013-02-24 08:29:00,37.8,37.0,29.68,NNE,27,2.0,0.0,97,0.00,,,0.06,WeatherTracker,2013-02-24 13:29:00,
2013-02-24 08:34:00,37.7,36.9,29.67,NNE,14,0.0,0.0,97,0.00,,,0.06,WeatherTracker,2013-02-24 13:34:00,
2013-02-24 08:39:00,37.7,36.9,29.68,WNW,296,1.0,0.0,97,0.00,,,0.06,WeatherTracker,2013-02-24 13:39:00,
2013-02-24 08:45:00,37.5,36.7,29.67,NE,42,2.0,0.0,97,0.00,,,0.06,WeatherTracker,2013-02-24 13:45:00,
2013-02-24 08:50:00,37.5,36.7,29.67,NNE,17,0.0,0.0,97,0.01,,,0.07,WeatherTracker,2013-02-24 13:50:00,
2013-02-24 08:55:00,37.4,36.6,29.66,NE,36,2.0,0.0,97,0.01,,,0.07,WeatherTracker,2013-02-24 13:55:00,
2013-02-24 09:00:00,37.4,36.6,29.66,North,355,2.0,0.0,97,0.01,,,0.07,WeatherTracker,2013-02-24 14:00:00,
2013-02-24 09:05:00,37.4,36.6,29.66,NNE,21,11.0,0.0,97,0.01,,,0.07,WeatherTracker,2013-02-24 14:05:00,
2013-02-24 09:10:00,37.3,36.3,29.66,NE,34,2.0,0.0,96,0.01,,,0.07,WeatherTracker,2013-02-24 14:10:00,
2013-02-24 09:15:00,37.4,36.4,29.66,WNW,282,0.0,0.0,96,0.01,,,0.07,WeatherTracker,2013-02-24 14:15:00,
2013-02-24 09:20:00,37.4,36.4,29.66,North,5,0.0,0.0,96,0.01,,,0.07,WeatherTracker,2013-02-24 14:20:00,
2013-02-24 09:25:00,37.4,36.4,29.66,North,5,0.0,0.0,96,0.01,,,0.07,WeatherTracker,2013-02-24 14:25:00,
2013-02-24 09:30:00,37.4,36.4,29.66,North,360,3.0,0.0,96,0.01,,,0.07,WeatherTracker,2013-02-24 14:30:00,
2013-02-24 09:35:00,37.5,36.5,29.66,NNE,21,1.0,0.0,96,0.01,,,0.07,WeatherTracker,2013-02-24 14:35:00,
2013-02-24 09:40:00,37.5,36.5,29.66,WNW,282,2.0,0.0,96,0.01,,,0.07,WeatherTracker,2013-02-24 14:40:00,
2013-02-24 09:45:00,37.5,36.5,29.65,NNE,28,2.0,0.0,96,0.01,,,0.07,WeatherTracker,2013-02-24 14:45:00,
2013-02-24 09:50:00,37.5,36.5,29.65,North,360,2.0,0.0,96,0.00,,,0.07,WeatherTracker,2013-02-24 14:50:00,
2013-02-24 09:55:00,37.5,36.5,29.65,NNE,19,2.0,0.0,96,0.01,,,0.08,WeatherTracker,2013-02-24 14:55:00,
2013-02-24 10:00:00,37.5,36.5,29.64,North,355,2.0,0.0,96,0.01,,,0.08,WeatherTracker,2013-02-24 15:00:00,
2013-02-24 10:05:00,37.5,36.5,29.64,NNW,334,2.0,0.0,96,0.01,,,0.08,WeatherTracker,2013-02-24 15:05:00,
2013-02-24 10:10:00,37.6,36.6,29.64,NNW,339,1.0,0.0,96,0.01,,,0.08,WeatherTracker,2013-02-24 15:10:00,
2013-02-24 10:15:00,37.5,36.5,29.64,WNW,292,2.0,0.0,96,0.01,,,0.08,WeatherTracker,2013-02-24 15:15:00,
2013-02-24 10:20:00,37.4,36.4,29.64,West,276,0.0,0.0,96,0.01,,,0.08,WeatherTracker,2013-02-24 15:20:00,
2013-02-24 10:25:00,37.3,36.3,29.63,NNW,338,1.0,0.0,96,0.01,,,0.08,WeatherTracker,2013-02-24 15:25:00,
2013-02-24 10:30:00,37.4,36.4,29.63,WNW,296,0.0,0.0,96,0.01,,,0.08,WeatherTracker,2013-02-24 15:30:00,
2013-02-24 10:35:00,37.3,36.3,29.63,NW,317,2.0,0.0,96,0.01,,,0.08,WeatherTracker,2013-02-24 15:35:00,
2013-02-24 10:40:00,37.3,36.3,29.63,NNW,334,2.0,0.0,96,0.01,,,0.08,WeatherTracker,2013-02-24 15:40:00,
2013-02-24 10:45:00,37.3,36.3,29.63,South,170,1.0,0.0,96,0.01,,,0.08,WeatherTracker,2013-02-24 15:45:00,
2013-02-24 10:50:00,37.2,36.2,29.64,NW,314,0.0,0.0,96,0.00,,,0.08,WeatherTracker,2013-02-24 15:50:00,
2013-02-24 10:56:00,37.3,36.3,29.64,East,79,0.0,0.0,96,0.00,,,0.08,WeatherTracker,2013-02-24 15:56:00,
2013-02-24 11:01:00,37.2,36.2,29.64,NW,325,3.0,0.0,96,0.00,,,0.08,WeatherTracker,2013-02-24 16:01:00,
2013-02-24 11:06:00,37.1,35.8,29.63,WNW,284,0.0,0.0,95,0.00,,,0.08,WeatherTracker,2013-02-24 16:06:00,
2013-02-24 11:11:00,37.0,35.7,29.64,WNW,294,0.0,0.0,95,0.00,,,0.08,WeatherTracker,2013-02-24 16:11:00,
2013-02-24 11:16:00,36.8,35.5,29.64,NNW,346,0.0,0.0,95,0.00,,,0.08,WeatherTracker,2013-02-24 16:16:00,
2013-02-24 11:21:00,36.6,35.3,29.64,NNE,15,2.0,0.0,95,0.00,,,0.08,WeatherTracker,2013-02-24 16:21:00,
2013-02-24 11:26:00,36.4,35.1,29.63,North,355,0.0,0.0,95,0.00,,,0.08,WeatherTracker,2013-02-24 16:26:00,
2013-02-24 11:31:00,36.3,35.0,29.63,NE,34,1.0,0.0,95,0.00,,,0.08,WeatherTracker,2013-02-24 16:31:00,
2013-02-24 11:36:00,36.3,35.0,29.64,NNW,344,2.0,0.0,95,0.00,,,0.08,WeatherTracker,2013-02-24 16:36:00,
2013-02-24 11:41:00,36.1,34.8,29.64,NW,326,0.0,0.0,95,0.00,,,0.08,WeatherTracker,2013-02-24 16:41:00,
2013-02-24 11:46:00,35.8,34.5,29.64,North,5,2.0,0.0,95,0.01,,,0.09,WeatherTracker,2013-02-24 16:46:00,
2013-02-24 11:51:00,35.5,34.2,29.64,East,97,1.0,0.0,95,0.01,,,0.09,WeatherTracker,2013-02-24 16:51:00,
2013-02-24 11:56:00,35.2,33.6,29.64,NW,323,1.0,0.0,94,0.01,,,0.09,WeatherTracker,2013-02-24 16:56:00,
2013-02-24 12:01:00,35.1,33.8,29.64,North,355,1.0,0.0,95,0.01,,,0.09,WeatherTracker,2013-02-24 17:01:00,
2013-02-24 12:06:00,34.8,33.5,29.63,WNW,301,0.0,0.0,95,0.01,,,0.09,WeatherTracker,2013-02-24 17:06:00,
2013-02-24 12:11:00,34.7,33.4,29.64,NW,307,1.0,0.0,95,0.01,,,0.09,WeatherTracker,2013-02-24 17:11:00,
2013-02-24 12:16:00,34.6,33.3,29.64,WNW,299,1.0,0.0,95,0.01,,,0.09,WeatherTracker,2013-02-24 17:16:00,
2013-02-24 12:21:00,34.6,33.3,29.64,NW,309,0.0,0.0,95,0.01,,,0.09,WeatherTracker,2013-02-24 17:21:00,
2013-02-24 12:26:00,34.4,33.1,29.64,NNW,329,0.0,0.0,95,0.01,,,0.09,WeatherTracker,2013-02-24 17:26:00,
2013-02-24 12:31:00,34.4,33.1,29.64,West,267,2.0,0.0,95,0.01,,,0.09,WeatherTracker,2013-02-24 17:31:00,
2013-02-24 12:36:00,34.2,32.9,29.64,WNW,296,0.0,0.0,95,0.01,,,0.09,WeatherTracker,2013-02-24 17:36:00,
2013-02-24 12:41:00,34.0,32.7,29.65,ESE,111,0.0,0.0,95,0.01,,,0.09,WeatherTracker,2013-02-24 17:41:00,
2013-02-24 12:46:00,33.9,32.6,29.64,NW,316,0.0,0.0,95,0.00,,,0.09,WeatherTracker,2013-02-24 17:46:00,
2013-02-24 12:51:00,33.8,32.5,29.64,North,10,1.0,0.0,95,0.00,,,0.09,WeatherTracker,2013-02-24 17:51:00,
2013-02-24 12:56:00,33.7,32.4,29.63,NNE,16,3.0,0.0,95,0.00,,,0.09,WeatherTracker,2013-02-24 17:56:00,
2013-02-24 13:01:00,33.5,32.2,29.63,North,360,0.0,0.0,95,0.01,,,0.10,WeatherTracker,2013-02-24 18:01:00,
2013-02-24 13:07:00,33.2,31.9,29.63,NNE,18,4.0,0.0,95,0.01,,,0.10,WeatherTracker,2013-02-24 18:07:00,
2013-02-24 13:12:00,33.0,31.7,29.63,ENE,59,7.0,0.0,95,0.01,,,0.10,WeatherTracker,2013-02-24 18:12:00,
2013-02-24 13:17:00,32.8,31.5,29.63,NNE,16,0.0,0.0,95,0.01,,,0.10,WeatherTracker,2013-02-24 18:17:00,
2013-02-24 13:22:00,32.7,31.4,29.63,NNW,339,0.0,0.0,95,0.01,,,0.10,WeatherTracker,2013-02-24 18:22:00,
2013-02-24 13:27:00,32.6,31.3,29.63,NNE,12,3.0,0.0,95,0.01,,,0.10,WeatherTracker,2013-02-24 18:27:00,
2013-02-24 13:32:00,32.5,31.2,29.62,NNE,25,2.0,0.0,95,0.01,,,0.10,WeatherTracker,2013-02-24 18:32:00,
2013-02-24 13:37:00,32.5,31.5,29.62,NNE,26,0.0,0.0,96,0.01,,,0.10,WeatherTracker,2013-02-24 18:37:00,
2013-02-24 13:42:00,32.5,31.2,29.62,ENE,68,1.0,0.0,95,0.01,,,0.10,WeatherTracker,2013-02-24 18:42:00,
2013-02-24 13:47:00,32.6,31.6,29.62,North,355,4.0,0.0,96,0.01,,,0.10,WeatherTracker,2013-02-24 18:47:00,
2013-02-24 13:52:00,32.6,31.6,29.62,NE,51,0.0,0.0,96,0.01,,,0.10,WeatherTracker,2013-02-24 18:52:00,
2013-02-24 13:57:00,32.8,31.8,29.62,South,190,0.0,0.0,96,0.01,,,0.10,WeatherTracker,2013-02-24 18:57:00,
2013-02-24 14:02:00,32.9,31.9,29.62,NE,35,0.0,0.0,96,0.00,,,0.10,WeatherTracker,2013-02-24 19:02:00,
2013-02-24 14:07:00,33.0,32.0,29.62,NE,46,4.0,0.0,96,0.00,,,0.10,WeatherTracker,2013-02-24 19:07:00,
2013-02-24 14:12:00,33.1,32.1,29.62,NE,46,0.0,0.0,96,0.00,,,0.10,WeatherTracker,2013-02-24 19:12:00,
2013-02-24 14:17:00,33.2,32.2,29.62,ENE,71,1.0,0.0,96,0.00,,,0.10,WeatherTracker,2013-02-24 19:17:00,
2013-02-24 14:22:00,33.2,32.2,29.62,North,355,0.0,0.0,96,0.00,,,0.10,WeatherTracker,2013-02-24 19:22:00,
2013-02-24 14:27:00,33.2,32.2,29.62,NW,313,0.0,0.0,96,0.00,,,0.10,WeatherTracker,2013-02-24 19:27:00,
2013-02-24 14:32:00,33.2,32.2,29.63,WNW,288,3.0,0.0,96,0.00,,,0.10,WeatherTracker,2013-02-24 19:32:00,
2013-02-24 14:37:00,33.2,32.2,29.63,NNW,336,0.0,0.0,96,0.00,,,0.10,WeatherTracker,2013-02-24 19:37:00,
2013-02-24 14:42:00,33.2,32.2,29.64,NNW,344,3.0,0.0,96,0.00,,,0.10,WeatherTracker,2013-02-24 19:42:00,
2013-02-24 14:47:00,33.2,32.2,29.64,NNW,327,5.0,0.0,96,0.00,,,0.10,WeatherTracker,2013-02-24 19:47:00,
2013-02-24 14:52:00,33.2,32.2,29.64,NNW,347,3.0,0.0,96,0.01,,,0.11,WeatherTracker,2013-02-24 19:52:00,
2013-02-24 14:57:00,33.3,32.0,29.64,North,5,0.0,0.0,95,0.01,,,0.11,WeatherTracker,2013-02-24 19:57:00,
2013-02-24 15:02:00,33.4,32.1,29.64,NNW,344,0.0,0.0,95,0.01,,,0.11,WeatherTracker,2013-02-24 20:02:00,
2013-02-24 15:08:00,33.4,32.1,29.65,NNW,344,2.0,0.0,95,0.01,,,0.11,WeatherTracker,2013-02-24 20:08:00,
2013-02-24 15:13:00,33.4,32.1,29.65,NNE,27,0.0,0.0,95,0.01,,,0.11,WeatherTracker,2013-02-24 20:13:00,
2013-02-24 15:18:00,33.4,32.1,29.65,NNE,24,0.0,0.0,95,0.01,,,0.11,WeatherTracker,2013-02-24 20:18:00,
2013-02-24 15:23:00,33.4,32.1,29.65,NNE,24,1.0,0.0,95,0.01,,,0.11,WeatherTracker,2013-02-24 20:23:00,
2013-02-24 15:28:00,33.3,32.0,29.65,SSW,204,0.0,0.0,95,0.01,,,0.11,WeatherTracker,2013-02-24 20:28:00,
2013-02-24 15:33:00,33.3,32.0,29.65,NNW,329,0.0,0.0,95,0.01,,,0.11,WeatherTracker,2013-02-24 20:33:00,
2013-02-24 15:38:00,33.2,31.9,29.66,NW,306,0.0,0.0,95,0.01,,,0.11,WeatherTracker,2013-02-24 20:38:00,
2013-02-24 15:43:00,33.1,31.8,29.66,WNW,300,2.0,0.0,95,0.01,,,0.11,WeatherTracker,2013-02-24 20:43:00,
2013-02-24 15:48:00,32.9,31.6,29.66,NNW,335,2.0,0.0,95,0.01,,,0.11,WeatherTracker,2013-02-24 20:48:00,
2013-02-24 15:53:00,32.8,31.5,29.66,NNW,331,0.0,0.0,95,0.00,,,0.11,WeatherTracker,2013-02-24 20:53:00,
2013-02-24 15:58:00,32.8,31.5,29.66,NNE,22,4.0,0.0,95,0.00,,,0.11,WeatherTracker,2013-02-24 20:58:00,
2013-02-24 16:03:00,32.8,31.5,29.66,NNW,346,0.0,0.0,95,0.00,,,0.11,WeatherTracker,2013-02-24 21:03:00,
2013-02-24 16:08:00,32.8,31.5,29.65,NNW,344,4.0,0.0,95,0.00,,,0.11,WeatherTracker,2013-02-24 21:08:00,
2013-02-24 16:13:00,32.8,31.5,29.66,NW,306,2.0,0.0,95,0.00,,,0.11,WeatherTracker,2013-02-24 21:13:00,
2013-02-24 16:18:00,32.7,31.4,29.67,NW,316,0.0,0.0,95,0.00,,,0.11,WeatherTracker,2013-02-24 21:18:00,
2013-02-24 16:23:00,32.7,31.4,29.67,NNW,331,0.0,0.0,95,0.01,,,0.12,WeatherTracker,2013-02-24 21:23:00,
2013-02-24 16:28:00,32.6,31.3,29.67,NW,312,0.0,0.0,95,0.01,,,0.12,WeatherTracker,2013-02-24 21:28:00,
2013-02-24 16:33:00,32.6,31.3,29.67,North,11,0.0,0.0,95,0.01,,,0.12,WeatherTracker,2013-02-24 21:33:00,
2013-02-24 16:38:00,32.5,31.2,29.67,NW,319,0.0,0.0,95,0.01,,,0.12,WeatherTracker,2013-02-24 21:38:00,
2013-02-24 16:43:00,32.5,31.2,29.67,NNE,31,3.0,0.0,95,0.01,,,0.12,WeatherTracker,2013-02-24 21:43:00,
2013-02-24 16:48:00,32.4,31.1,29.67,North,9,0.0,0.0,95,0.01,,,0.12,WeatherTracker,2013-02-24 21:48:00,
2013-02-24 16:53:00,32.3,31.0,29.68,NNW,327,0.0,0.0,95,0.01,,,0.12,WeatherTracker,2013-02-24 21:53:00,
2013-02-24 16:58:00,32.3,31.0,29.67,NNW,327,0.0,0.0,95,0.01,,,0.12,WeatherTracker,2013-02-24 21:58:00,
2013-02-24 17:03:00,32.3,31.0,29.67,NNE,25,2.0,0.0,95,0.01,,,0.12,WeatherTracker,2013-02-24 22:03:00,
2013-02-24 17:09:00,32.2,31.2,29.68,NW,325,0.0,0.0,96,0.01,,,0.12,WeatherTracker,2013-02-24 22:09:00,
2013-02-24 17:14:00,32.2,31.2,29.68,South,191,1.0,0.0,96,0.01,,,0.12,WeatherTracker,2013-02-24 22:14:00,
2013-02-24 17:19:00,32.2,31.2,29.68,NNW,344,0.0,0.0,96,0.01,,,0.12,WeatherTracker,2013-02-24 22:19:00,
2013-02-24 17:24:00,32.1,31.1,29.69,West,273,0.0,0.0,96,0.00,,,0.12,WeatherTracker,2013-02-24 22:24:00,
2013-02-24 17:29:00,32.1,31.1,29.69,SSW,200,0.0,0.0,96,0.00,,,0.12,WeatherTracker,2013-02-24 22:29:00,
2013-02-24 17:34:00,32.1,31.1,29.70,SSW,200,0.0,0.0,96,0.00,,,0.12,WeatherTracker,2013-02-24 22:34:00,
2013-02-24 17:39:00,32.1,31.1,29.70,SW,236,1.0,0.0,96,0.00,,,0.12,WeatherTracker,2013-02-24 22:39:00,
2013-02-24 17:44:00,32.0,31.0,29.70,NW,313,0.0,0.0,96,0.00,,,0.12,WeatherTracker,2013-02-24 22:44:00,
2013-02-24 17:49:00,32.0,31.0,29.70,NNW,336,0.0,0.0,96,0.00,,,0.12,WeatherTracker,2013-02-24 22:49:00,
2013-02-24 17:54:00,32.0,31.0,29.70,North,5,1.0,0.0,96,0.00,,,0.12,WeatherTracker,2013-02-24 22:54:00,
2013-02-24 17:59:00,32.0,31.0,29.70,NNE,15,0.0,0.0,96,0.00,,,0.12,WeatherTracker,2013-02-24 22:59:00,
2013-02-24 18:04:00,32.0,31.0,29.70,NE,51,0.0,0.0,96,0.00,,,0.12,WeatherTracker,2013-02-24 23:04:00,
2013-02-24 18:09:00,32.0,31.0,29.70,West,260,0.0,0.0,96,0.00,,,0.12,WeatherTracker,2013-02-24 23:09:00,
2013-02-24 18:14:00,32.0,31.0,29.71,SSW,202,0.0,0.0,96,0.00,,,0.12,WeatherTracker,2013-02-24 23:14:00,
2013-02-24 18:19:00,31.9,30.9,29.71,West,266,0.0,0.0,96,0.00,,,0.12,WeatherTracker,2013-02-24 23:19:00,
2013-02-24 18:24:00,31.9,30.9,29.71,North,11,0.0,0.0,96,0.00,,,0.12,WeatherTracker,2013-02-24 23:24:00,
2013-02-24 18:29:00,31.9,30.9,29.72,NW,316,2.0,0.0,96,0.00,,,0.12,WeatherTracker,2013-02-24 23:29:00,
2013-02-24 18:34:00,31.9,30.9,29.72,WSW,250,0.0,0.0,96,0.00,,,0.12,WeatherTracker,2013-02-24 23:34:00,
2013-02-24 18:39:00,31.8,30.8,29.73,WSW,250,0.0,0.0,96,0.00,,,0.12,WeatherTracker,2013-02-24 23:39:00,
2013-02-24 18:44:00,31.8,30.8,29.73,WNW,293,0.0,0.0,96,0.00,,,0.12,WeatherTracker,2013-02-24 23:44:00,
2013-02-24 18:49:00,31.7,30.7,29.73,NNW,346,0.0,0.0,96,0.00,,,0.12,WeatherTracker,2013-02-24 23:49:00,
2013-02-24 18:54:00,31.7,30.7,29.73,East,80,1.0,0.0,96,0.01,,,0.13,WeatherTracker,2013-02-24 23:54:00,
2013-02-24 18:59:00,31.7,30.7,29.73,NW,323,0.0,0.0,96,0.01,,,0.13,WeatherTracker,2013-02-24 23:59:00,
2013-02-24 19:05:00,31.7,30.7,29.74,NW,315,0.0,0.0,96,0.01,,,0.13,WeatherTracker,2013-02-25 00:05:00,
2013-02-24 19:10:00,31.6,30.6,29.74,NW,322,0.0,0.0,96,0.01,,,0.13,WeatherTracker,2013-02-25 00:10:00,
2013-02-24 19:15:00,31.5,30.5,29.74,NW,324,0.0,0.0,96,0.01,,,0.13,WeatherTracker,2013-02-25 00:15:00,
2013-02-24 19:20:00,31.5,30.5,29.75,South,178,0.0,0.0,96,0.01,,,0.13,WeatherTracker,2013-02-25 00:20:00,
2013-02-24 19:25:00,31.5,30.5,29.75,NW,317,0.0,0.0,96,0.01,,,0.13,WeatherTracker,2013-02-25 00:25:00,
2013-02-24 19:30:00,31.4,30.4,29.75,WNW,301,0.0,0.0,96,0.01,,,0.13,WeatherTracker,2013-02-25 00:30:00,
2013-02-24 19:35:00,31.4,30.4,29.75,North,5,0.0,0.0,96,0.01,,,0.13,WeatherTracker,2013-02-25 00:35:00,
2013-02-24 19:40:00,31.3,30.3,29.75,NNW,333,0.0,0.0,96,0.01,,,0.13,WeatherTracker,2013-02-25 00:40:00,
2013-02-24 19:45:00,31.3,30.3,29.76,NNW,335,0.0,0.0,96,0.01,,,0.13,WeatherTracker,2013-02-25 00:45:00,
2013-02-24 19:50:00,31.2,30.2,29.76,NNW,335,0.0,0.0,96,0.01,,,0.13,WeatherTracker,2013-02-25 00:50:00,
2013-02-24 19:55:00,31.2,30.2,29.76,NNE,30,0.0,0.0,96,0.00,,,0.13,WeatherTracker,2013-02-25 00:55:00,
2013-02-24 20:00:00,31.1,30.1,29.76,North,5,0.0,0.0,96,0.00,,,0.13,WeatherTracker,2013-02-25 01:00:00,
2013-02-24 20:05:00,31.1,30.1,29.76,WNW,302,0.0,0.0,96,0.00,,,0.13,WeatherTracker,2013-02-25 01:05:00,
2013-02-24 20:10:00,31.1,30.1,29.77,East,80,0.0,0.0,96,0.00,,,0.13,WeatherTracker,2013-02-25 01:10:00,
2013-02-24 20:15:00,31.0,30.0,29.77,North,5,0.0,0.0,96,0.00,,,0.13,WeatherTracker,2013-02-25 01:15:00,
2013-02-24 20:20:00,31.0,30.0,29.77,North,11,0.0,0.0,96,0.00,,,0.13,WeatherTracker,2013-02-25 01:20:00,
2013-02-24 20:25:00,31.0,30.0,29.77,NNW,344,0.0,0.0,96,0.00,,,0.13,WeatherTracker,2013-02-25 01:25:00,
2013-02-24 20:30:00,31.0,30.0,29.78,NW,319,0.0,0.0,96,0.00,,,0.13,WeatherTracker,2013-02-25 01:30:00,
2013-02-24 20:35:00,31.0,30.0,29.78,NW,321,0.0,0.0,96,0.00,,,0.13,WeatherTracker,2013-02-25 01:35:00,
2013-02-24 20:40:00,31.0,30.0,29.78,NE,44,0.0,0.0,96,0.01,,,0.14,WeatherTracker,2013-02-25 01:40:00,
2013-02-24 20:45:00,31.0,30.0,29.78,North,11,0.0,0.0,96,0.01,,,0.14,WeatherTracker,2013-02-25 01:45:00,
2013-02-24 20:50:00,30.9,29.9,29.79,NNE,15,0.0,0.0,96,0.01,,,0.14,WeatherTracker,2013-02-25 01:50:00,
2013-02-24 20:55:00,30.9,29.9,29.79,NNE,15,0.0,0.0,96,0.01,,,0.14,WeatherTracker,2013-02-25 01:55:00,
2013-02-24 21:01:00,30.9,29.9,29.79,NNW,339,0.0,0.0,96,0.01,,,0.14,WeatherTracker,2013-02-25 02:01:00,
2013-02-24 21:06:00,30.9,29.9,29.79,North,5,0.0,0.0,96,0.01,,,0.14,WeatherTracker,2013-02-25 02:06:00,
2013-02-24 21:11:00,30.9,29.9,29.79,NNE,24,0.0,0.0,96,0.01,,,0.14,WeatherTracker,2013-02-25 02:11:00,
2013-02-24 21:16:00,30.9,29.9,29.80,ENE,71,0.0,0.0,96,0.01,,,0.14,WeatherTracker,2013-02-25 02:16:00,
2013-02-24 21:21:00,30.9,29.9,29.80,ENE,73,0.0,0.0,96,0.01,,,0.14,WeatherTracker,2013-02-25 02:21:00,
2013-02-24 21:26:00,30.9,29.9,29.79,ENE,73,0.0,0.0,96,0.01,,,0.14,WeatherTracker,2013-02-25 02:26:00,
2013-02-24 21:31:00,30.9,29.9,29.80,NE,36,0.0,0.0,96,0.01,,,0.14,WeatherTracker,2013-02-25 02:31:00,
2013-02-24 21:36:00,31.0,30.0,29.80,NE,36,0.0,0.0,96,0.01,,,0.14,WeatherTracker,2013-02-25 02:36:00,
2013-02-24 21:41:00,30.9,29.9,29.80,NE,34,0.0,0.0,96,0.00,,,0.14,WeatherTracker,2013-02-25 02:41:00,
2013-02-24 21:46:00,30.9,29.9,29.80,NNW,348,0.0,0.0,96,0.00,,,0.14,WeatherTracker,2013-02-25 02:46:00,
2013-02-24 21:51:00,30.9,29.9,29.80,NNE,31,0.0,0.0,96,0.00,,,0.14,WeatherTracker,2013-02-25 02:51:00,
2013-02-24 21:56:00,30.8,29.8,29.80,NE,38,0.0,0.0,96,0.00,,,0.14,WeatherTracker,2013-02-25 02:56:00,
2013-02-24 22:01:00,30.8,29.8,29.80,NE,39,0.0,0.0,96,0.00,,,0.14,WeatherTracker,2013-02-25 03:01:00,
2013-02-24 22:06:00,30.8,29.8,29.80,NE,39,0.0,0.0,96,0.00,,,0.14,WeatherTracker,2013-02-25 03:06:00,
2013-02-24 22:11:00,30.7,29.7,29.80,NE,54,0.0,0.0,96,0.00,,,0.14,WeatherTracker,2013-02-25 03:11:00,
2013-02-24 22:16:00,30.7,29.7,29.81,NE,54,0.0,0.0,96,0.00,,,0.14,WeatherTracker,2013-02-25 03:16:00,
2013-02-24 22:21:00,30.7,29.7,29.81,East,80,0.0,0.0,96,0.00,,,0.14,WeatherTracker,2013-02-25 03:21:00,
2013-02-24 22:26:00,30.7,29.7,29.81,East,80,0.0,0.0,96,0.00,,,0.14,WeatherTracker,2013-02-25 03:26:00,
2013-02-24 22:31:00,30.7,29.7,29.81,East,80,0.0,0.0,96,0.00,,,0.14,WeatherTracker,2013-02-25 03:31:00,
2013-02-24 22:36:00,30.8,29.8,29.81,East,80,0.0,0.0,96,0.00,,,0.14,WeatherTracker,2013-02-25 03:36:00,
2013-02-24 22:41:00,30.8,29.8,29.81,East,80,0.0,0.0,96,0.00,,,0.14,WeatherTracker,2013-02-25 03:41:00,
2013-02-24 22:46:00,30.8,29.8,29.81,East,80,0.0,0.0,96,0.00,,,0.14,WeatherTracker,2013-02-25 03:46:00,
2013-02-24 22:51:00,30.8,29.8,29.81,East,80,0.0,0.0,96,0.00,,,0.14,WeatherTracker,2013-02-25 03:51:00,
2013-02-24 22:56:00,30.8,29.8,29.81,East,80,0.0,0.0,96,0.00,,,0.14,WeatherTracker,2013-02-25 03:56:00,
2013-02-24 23:01:00,30.8,30.1,29.81,ENE,62,0.0,0.0,97,0.00,,,0.14,WeatherTracker,2013-02-25 04:01:00,
2013-02-24 23:06:00,30.8,30.1,29.81,ENE,62,0.0,0.0,97,0.00,,,0.14,WeatherTracker,2013-02-25 04:06:00,
2013-02-24 23:11:00,30.8,30.1,29.81,ENE,62,0.0,0.0,97,0.00,,,0.14,WeatherTracker,2013-02-25 04:11:00,
2013-02-24 23:16:00,30.8,30.1,29.82,ENE,62,0.0,0.0,97,0.00,,,0.14,WeatherTracker,2013-02-25 04:16:00,
2013-02-24 23:22:00,30.7,30.0,29.82,ENE,62,0.0,0.0,97,0.00,,,0.14,WeatherTracker,2013-02-25 04:22:00,
2013-02-24 23:27:00,30.7,30.0,29.82,ENE,62,0.0,0.0,97,0.00,,,0.14,WeatherTracker,2013-02-25 04:27:00,
2013-02-24 23:32:00,30.7,30.0,29.82,ENE,62,0.0,0.0,97,0.00,,,0.14,WeatherTracker,2013-02-25 04:32:00,
2013-02-24 23:37:00,30.6,29.6,29.82,ENE,62,0.0,0.0,96,0.00,,,0.14,WeatherTracker,2013-02-25 04:37:00,
2013-02-24 23:42:00,30.6,29.6,29.82,ENE,68,0.0,0.0,96,0.00,,,0.14,WeatherTracker,2013-02-25 04:42:00,
2013-02-24 23:47:00,30.6,29.6,29.82,ENE,68,0.0,0.0,96,0.01,,,0.15,WeatherTracker,2013-02-25 04:47:00,
2013-02-24 23:52:00,30.5,29.5,29.82,ENE,68,0.0,0.0,96,0.01,,,0.15,WeatherTracker,2013-02-25 04:52:00,
2013-02-24 23:57:00,30.5,29.5,29.83,ENE,68,0.0,0.0,96,0.01,,,0.15,WeatherTracker,2013-02-25 04:57:00,